Weather History for KSKA - November, 2012

Change the Weather History Date:

Tuesday, November 13, 2012

  Actual Average Record
Temperature  
Mean Temperature 34 °F -  
Max Temperature 37 °F 42 °F 59 °F (1999)
Min Temperature 32 °F 29 °F 10 °F (2014)
Degree Days  
Heating Degree Days 30    
Moisture  
Dew Point 34 °F    
Average Humidity 100    
Maximum Humidity 100    
Minimum Humidity 99    
Precipitation  
Precipitation 0.00 in - - ()
Snow  
Snow 0.00 in - - ()
Snow Depth 1.00 in    
Sea Level Pressure  
Sea Level Pressure 30.21 in    
Wind  
Wind Speed 4 mph (SE)    
Max Wind Speed 8 mph    
Max Gust Speed -    
Visibility 7 miles    
Events Fog    
Averages and records for this station are not official NWS values.
T = Trace of Precipitation, MM = Missing Value Source: NWS Daily Summary

Daily Weather History Graph

Daily Weather History Graph

Search for Another Location

Airport or City:

Trip Planner

Search our weather history database for the weather conditions in past years. The results will help you decide how hot, cold, wet, or windy it might be!

Date:

Astronomy

Nov. 13, 2012 Rise Set
Actual Time 6:53 AM PST 4:15 PM PST
Civil Twilight 6:20 AM PST 4:49 PM PST
Nautical Twilight 5:42 AM PST 5:26 PM PST
Astronomical Twilight 5:06 AM PST 6:02 PM PST
Moon 6:38 AM PST (11/13) 4:10 PM PST (11/13)
Length of Visible Light 10h 28m
Length of Day
9h 22m
Waning Crescent, 0% of the Moon is Illuminated
Nov 13
Waning Crescent
Nov 13
New
Nov 20
First Quarter
Nov 28
Full
Dec 6
Last Quarter

Hourly Weather History & Observations

Time (PST) Temp. Windchill Dew Point Humidity Pressure Visibility Wind Dir Wind Speed Gust Speed Precip Events Conditions
12:21 AM 33.8 °F - 33.8 °F 100% 30.23 in 0.5 mi SW 1.2 mph - N/A Fog Fog
12:58 AM 33.8 °F 30.8 °F 33.8 °F 100% 30.30 in 0.5 mi SSE 3.5 mph - 0.00 in Fog Fog
1:28 AM 33.8 °F - 33.8 °F 100% 30.23 in 0.5 mi SSE 2.3 mph - N/A Fog Fog
1:43 AM 33.8 °F - 33.8 °F 100% 30.23 in 0.5 mi Calm Calm - N/A Fog Fog
1:58 AM 33.8 °F - 33.8 °F 100% 30.30 in 0.5 mi East 2.3 mph - N/A Fog Fog
2:01 AM 32.0 °F - 32.0 °F 100% 30.23 in 0.5 mi East 2.3 mph - N/A Fog Fog
2:11 AM 32.0 °F - 32.0 °F 100% 30.23 in 0.5 mi SE 2.3 mph - N/A Fog Fog
2:58 AM 33.1 °F 30.0 °F 33.1 °F 100% 30.30 in 0.2 mi SSE 3.5 mph - 0.00 in Fog Fog
3:03 AM 32.0 °F - 32.0 °F 100% 30.23 in 0.2 mi SE 2.3 mph - N/A Fog Fog
3:08 AM 32.0 °F 28.7 °F 32.0 °F 100% 30.23 in 0.2 mi SSE 3.5 mph - N/A Fog Fog
3:33 AM 32.0 °F 28.7 °F 32.0 °F 100% 30.22 in 0.5 mi SE 3.5 mph - N/A Fog Fog
3:35 AM 32.0 °F 28.7 °F 32.0 °F 100% 30.22 in 0.5 mi SE 3.5 mph - N/A Fog Fog
3:40 AM 32.0 °F 28.7 °F 32.0 °F 100% 30.22 in 0.5 mi SE 3.5 mph - N/A Fog Fog
3:58 AM 33.3 °F 27.9 °F 33.3 °F 100% 30.30 in 0.5 mi ESE 5.8 mph - 0.00 in Fog Light Drizzle
4:13 AM 32.0 °F 26.4 °F 32.0 °F 100% 30.22 in 0.5 mi ESE 5.8 mph - N/A Fog Light Drizzle
4:14 AM 32.0 °F 26.4 °F 32.0 °F 100% 30.22 in 0.5 mi ESE 5.8 mph - N/A Fog Fog
4:29 AM 32.0 °F 26.4 °F 32.0 °F 100% 30.21 in 0.8 mi ESE 5.8 mph - N/A   Mist
4:34 AM 33.8 °F 28.6 °F 33.8 °F 100% 30.21 in 0.8 mi SE 5.8 mph - N/A   Mist
4:39 AM 33.8 °F 28.6 °F 33.8 °F 100% 30.21 in 1.2 mi SE 5.8 mph - N/A   Overcast
4:44 AM 33.8 °F 29.6 °F 33.8 °F 100% 30.21 in 2.0 mi SE 4.6 mph - N/A   Overcast
4:49 AM 33.8 °F 29.6 °F 33.8 °F 100% 30.21 in 2.5 mi ESE 4.6 mph - N/A   Overcast
4:54 AM 33.8 °F 29.6 °F 33.8 °F 100% 30.21 in 2.0 mi ESE 4.6 mph - N/A   Overcast
4:58 AM 34.0 °F 31.0 °F 34.0 °F 100% 30.30 in 2.0 mi ESE 3.5 mph - 0.00 in   Overcast
5:03 AM 33.8 °F 30.8 °F 33.8 °F 100% 30.22 in 3.0 mi SE 3.5 mph - N/A   Overcast
5:23 AM 33.8 °F 29.6 °F 33.8 °F 100% 30.22 in 6.0 mi SSE 4.6 mph - N/A   Overcast
5:48 AM 33.8 °F 29.6 °F 33.8 °F 100% 30.22 in 9.0 mi SSE 4.6 mph - N/A   Overcast
5:53 AM 33.8 °F 28.6 °F 33.8 °F 100% 30.22 in 10.0 mi SSE 5.8 mph - N/A   Overcast
5:58 AM 34.0 °F 28.8 °F 34.0 °F 100% 30.30 in 10.0 mi SE 5.8 mph - N/A   Overcast
7:04 AM 33.8 °F 28.6 °F 33.8 °F 100% 30.29 in 6.0 mi SSE 5.8 mph - N/A   Light Drizzle
7:34 AM 33.8 °F 28.6 °F 33.8 °F 100% 30.29 in 2.5 mi SSE 5.8 mph - N/A   Light Drizzle
7:55 AM 34.3 °F 30.2 °F 34.3 °F 100% 30.29 in 1.8 mi SE 4.6 mph - 0.00 in   Light Drizzle
8:11 AM 33.8 °F 28.6 °F 33.8 °F 100% 30.30 in 5.0 mi SSE 5.8 mph - N/A   Overcast
8:21 AM 33.8 °F 30.8 °F 33.8 °F 100% 30.30 in 9.0 mi SSE 3.5 mph - N/A   Overcast
8:40 AM 33.8 °F 30.8 °F 33.8 °F 100% 30.22 in 2.5 mi SE 3.5 mph - N/A   Overcast
8:55 AM 34.5 °F 30.4 °F 34.5 °F 100% 30.29 in 5.0 mi SE 4.6 mph - N/A   Overcast
8:58 AM 34.5 °F 30.4 °F 34.5 °F 100% 30.30 in 7.0 mi SE 4.6 mph - N/A   Overcast
9:01 AM 33.8 °F 28.6 °F 33.8 °F 100% 30.22 in 10.0 mi SE 5.8 mph - N/A   Overcast
9:19 AM 35.6 °F 29.2 °F 35.6 °F 100% 30.22 in 3.0 mi SSE 8.1 mph - N/A   Overcast
9:24 AM 35.6 °F 30.7 °F 35.6 °F 100% 30.22 in 3.0 mi SSE 5.8 mph - N/A   Overcast
9:34 AM 35.6 °F 30.7 °F 35.6 °F 100% 30.22 in 10.0 mi SE 5.8 mph - N/A   Overcast
9:54 AM 35.6 °F 29.9 °F 35.6 °F 100% 30.22 in 10.0 mi SSE 6.9 mph - N/A   Overcast
9:58 AM 34.9 °F 28.3 °F 34.9 °F 100% 30.30 in 10.0 mi SSE 8.1 mph - 0.00 in   Overcast
10:18 AM 35.6 °F 29.9 °F 35.6 °F 100% 30.22 in 10.0 mi SSE 6.9 mph - N/A   Overcast
10:48 AM 35.6 °F 31.7 °F 35.6 °F 100% 30.22 in 10.0 mi SSE 4.6 mph - N/A   Overcast
10:53 AM 35.6 °F 31.7 °F 35.6 °F 100% 30.21 in 10.0 mi SSE 4.6 mph - N/A   Overcast
10:58 AM 35.1 °F 29.3 °F 35.1 °F 100% 30.28 in 10.0 mi SSE 6.9 mph - N/A   Overcast
11:43 AM 35.6 °F 30.7 °F 35.6 °F 100% 30.20 in 10.0 mi SSE 5.8 mph - N/A   Overcast
11:53 AM 35.6 °F 30.7 °F 35.6 °F 100% 30.19 in 10.0 mi SSE 5.8 mph - N/A   Overcast
11:58 AM 35.6 °F 29.9 °F 35.6 °F 100% 30.26 in 10.0 mi SSE 6.9 mph - N/A   Overcast
12:08 PM 35.6 °F 29.9 °F 35.6 °F 100% 30.19 in 10.0 mi SSE 6.9 mph - N/A   Overcast
12:18 PM 35.6 °F 29.2 °F 35.6 °F 100% 30.19 in 10.0 mi SSE 8.1 mph - N/A   Overcast
12:58 PM 36.0 °F 31.1 °F 35.8 °F 99% 30.26 in 10.0 mi SSE 5.8 mph - N/A   Overcast
1:05 PM 35.6 °F 31.7 °F 35.6 °F 100% 30.18 in 10.0 mi SSE 4.6 mph - N/A   Overcast
1:45 PM 35.6 °F 30.7 °F 35.6 °F 100% 30.17 in 10.0 mi SSE 5.8 mph - N/A   Overcast
1:55 PM 35.6 °F 31.7 °F 35.6 °F 100% 30.17 in 10.0 mi SSE 4.6 mph - N/A   Overcast
1:58 PM 36.1 °F 30.6 °F 36.1 °F 100% 30.24 in 10.0 mi SSE 6.9 mph - N/A   Overcast
2:13 PM 35.6 °F 30.7 °F 35.6 °F 100% 30.16 in 10.0 mi SSE 5.8 mph - N/A   Overcast
2:38 PM 35.6 °F 31.7 °F 35.6 °F 100% 30.16 in 10.0 mi SSE 4.6 mph - N/A   Overcast
2:58 PM 36.5 °F 32.7 °F 36.5 °F 100% 30.24 in 10.0 mi SE 4.6 mph - N/A   Overcast
3:13 PM 37.4 °F 34.9 °F 37.4 °F 100% 30.17 in 10.0 mi SE 3.5 mph - N/A   Overcast
3:42 PM 35.6 °F 30.7 °F 35.6 °F 100% 30.16 in 10.0 mi ESE 5.8 mph - N/A   Overcast
3:47 PM 35.6 °F 31.7 °F 35.6 °F 100% 30.16 in 10.0 mi ESE 4.6 mph - N/A   Overcast
3:58 PM 36.0 °F - 36.0 °F 100% 30.23 in 10.0 mi East 2.3 mph - 0.00 in   Overcast
4:03 PM 35.6 °F - 35.6 °F 100% 30.16 in 10.0 mi East 2.3 mph - N/A   Overcast
4:09 PM 35.6 °F 32.8 °F 35.6 °F 100% 30.16 in 10.0 mi East 3.5 mph - N/A   Overcast
4:46 PM 35.6 °F 31.7 °F 35.6 °F 100% 30.15 in 10.0 mi ESE 4.6 mph - N/A   Overcast
4:56 PM 35.6 °F 30.7 °F 35.6 °F 100% 30.16 in 10.0 mi ESE 5.8 mph - N/A   Overcast
4:58 PM 35.6 °F 31.7 °F 35.6 °F 100% 30.23 in 10.0 mi ESE 4.6 mph - 0.00 in   Overcast
5:43 PM 35.6 °F 31.7 °F 35.6 °F 100% 30.15 in 10.0 mi SE 4.6 mph - N/A   Overcast
5:58 PM 34.9 °F 32.0 °F 34.9 °F 100% 30.22 in 10.0 mi ESE 3.5 mph - N/A   Overcast
6:58 PM 35.1 °F 31.0 °F 35.1 °F 100% 30.15 in 10.0 mi ESE 4.6 mph - N/A   Overcast
7:58 PM 34.7 °F 31.8 °F 34.7 °F 100% 30.15 in 10.0 mi East 3.5 mph - N/A   Overcast
8:20 PM 33.8 °F 30.8 °F 33.8 °F 100% 30.15 in 10.0 mi East 3.5 mph - N/A   Overcast
8:30 PM 33.8 °F 30.8 °F 33.8 °F 100% 30.14 in 10.0 mi East 3.5 mph - N/A   Mostly Cloudy
8:42 PM 33.8 °F 29.6 °F 33.8 °F 100% 30.15 in 10.0 mi East 4.6 mph - N/A   Scattered Clouds
8:58 PM 33.8 °F 29.6 °F 33.8 °F 100% 30.22 in 10.0 mi East 4.6 mph - 0.00 in   Scattered Clouds
9:00 PM 32.0 °F 27.5 °F 32.0 °F 100% 30.15 in 10.0 mi East 4.6 mph - N/A   Scattered Clouds
9:10 PM 33.8 °F 29.6 °F 33.8 °F 100% 30.14 in 10.0 mi East 4.6 mph - N/A   Mostly Cloudy
9:35 PM 33.8 °F 30.8 °F 33.8 °F 100% 30.14 in 10.0 mi East 3.5 mph - N/A   Overcast
9:48 PM 33.8 °F 30.8 °F 33.8 °F 100% 30.14 in 10.0 mi East 3.5 mph - N/A   Overcast
9:53 PM 33.8 °F - 33.8 °F 100% 30.14 in 10.0 mi East 2.3 mph - N/A   Overcast
9:58 PM 34.2 °F - 34.2 °F 100% 30.21 in 10.0 mi East 2.3 mph - 0.00 in   Overcast
10:58 PM 34.2 °F 30.0 °F 34.2 °F 100% 30.21 in 10.0 mi ESE 4.6 mph - N/A   Overcast
11:10 PM 33.8 °F - 33.8 °F 100% 30.14 in 10.0 mi ESE 2.3 mph - N/A   Light Drizzle
11:35 PM 33.8 °F 30.8 °F 33.8 °F 100% 30.14 in 10.0 mi ESE 3.5 mph - N/A   Overcast
11:45 PM 33.8 °F 30.8 °F 33.8 °F 100% 30.14 in 10.0 mi ESE 3.5 mph - N/A   Overcast
11:58 PM 34.3 °F 30.2 °F 34.3 °F 100% 30.21 in 10.0 mi ESE 4.6 mph - 0.00 in   Overcast